| time (UTC) | temp F | wind direction | speed MPH | gust MPH | rain 1hr in | rain 24hr in | rain mn in | humidity % | barometer mb |
| 20260507222017 | 53 | 0.0 | 0.0 | 0.00 | 0.00 | 0.00 | 84 | 1013.8 | |
| 20260507221017 | 53 | 0.0 | 0.0 | 0.00 | 0.00 | 0.00 | 83 | 1013.8 | |
| 20260507220017 | 53 | 0.0 | 0.0 | 0.00 | 0.00 | 0.00 | 83 | 1013.8 | |
| 20260507215017 | 53 | 0.0 | 0.0 | 0.00 | 0.00 | 0.00 | 83 | 1013.6 | |
| 20260507214019 | 54 | 0.0 | 0.0 | 0.00 | 0.00 | 0.00 | 83 | 1013.6 | |
| 20260507213037 | 54 | 0.0 | 0.0 | 0.00 | 0.00 | 0.00 | 83 | 1013.6 | |
| 20260507212017 | 54 | 0.0 | 0.0 | 0.00 | 0.00 | 0.00 | 83 | 1013.5 | |
| 20260507211017 | 54 | 0.0 | 1.0 | 0.00 | 0.00 | 0.00 | 83 | 1013.6 | |
| 20260507210017 | 54 | 0.0 | 0.0 | 0.00 | 0.00 | 0.00 | 82 | 1013.4 | |
| 20260507205017 | 55 | 0.0 | 0.0 | 0.00 | 0.00 | 0.00 | 82 | 1013.4 | |
| 20260507204017 | 55 | 0.0 | 0.0 | 0.00 | 0.00 | 0.00 | 82 | 1013.4 | |
| 20260507203017 | 55 | 0.0 | 0.0 | 0.00 | 0.00 | 0.00 | 82 | 1013.3 | |
| 20260507202037 | 55 | 0.0 | 1.0 | 0.00 | 0.00 | 0.00 | 81 | 1013.2 | |
| 20260507201017 | 55 | 0.0 | 1.0 | 0.00 | 0.00 | 0.00 | 81 | 1013.1 | |
| 20260507200018 | 56 | 0.0 | 0.0 | 0.00 | 0.00 | 0.00 | 81 | 1013.0 | |
| 20260507195017 | 56 | 0.0 | 0.0 | 0.00 | 0.00 | 0.00 | 81 | 1013.0 | |
| 20260507194017 | 56 | 0.0 | 0.0 | 0.00 | 0.00 | 0.00 | 81 | 1013.1 | |
| 20260507193018 | 57 | 0.0 | 0.0 | 0.00 | 0.00 | 0.00 | 80 | 1013.0 | |
| 20260507192017 | 57 | 0.0 | 0.0 | 0.00 | 0.00 | 0.00 | 79 | 1012.8 | |
| 20260507191038 | 57 | 0.0 | 0.0 | 0.00 | 0.00 | 0.00 | 78 | 1012.7 | |
| 20260507190017 | 58 | 0.0 | 0.0 | 0.00 | 0.00 | 0.00 | 78 | 1012.5 | |
| 20260507185017 | 58 | 0.0 | 0.0 | 0.00 | 0.00 | 0.00 | 77 | 1012.2 | |
| 20260507184017 | 59 | 0.0 | 0.0 | 0.00 | 0.00 | 0.00 | 76 | 1012.3 | |
| 20260507183017 | 59 | 0.0 | 0.0 | 0.00 | 0.00 | 0.00 | 76 | 1012.1 | |
| 20260507182017 | 59 | 0.0 | 1.0 | 0.00 | 0.00 | 0.00 | 76 | 1012.0 | |
| 20260507181017 | 60 | 0.0 | 0.0 | 0.00 | 0.00 | 0.00 | 75 | 1012.0 | |
| 20260507180016 | 60 | 0.0 | 1.0 | 0.00 | 0.00 | 0.00 | 75 | 1012.0 | |
| 20260507175017 | 61 | 0.0 | 0.0 | 0.00 | 0.00 | 0.00 | 73 | 1012.0 | |
| 20260507174018 | 62 | 0.0 | 1.0 | 0.00 | 0.00 | 0.00 | 71 | 1011.9 | |
| 20260507173037 | 63 | 0.0 | 0.0 | 0.00 | 0.00 | 0.00 | 68 | 1011.9 | |
| 20260507172017 | 64 | 0.0 | 0.0 | 0.00 | 0.00 | 0.00 | 67 | 1011.9 | |
| 20260507171037 | 65 | 0.0 | 2.0 | 0.00 | 0.00 | 0.00 | 66 | 1012.0 | |
| 20260507170017 | 65 | 225 | 1.0 | 3.0 | 0.00 | 0.00 | 0.00 | 64 | 1012.0 |
| 20260507165017 | 65 | 180 | 1.0 | 3.0 | 0.00 | 0.00 | 0.00 | 65 | 1011.9 |
| 20260507164017 | 65 | 113 | 1.0 | 3.0 | 0.00 | 0.00 | 0.00 | 63 | 1011.9 |
| 20260507163016 | 65 | 135 | 1.0 | 4.0 | 0.00 | 0.00 | 0.00 | 65 | 1011.9 |
| 20260507162017 | 65 | 113 | 1.0 | 3.0 | 0.00 | 0.00 | 0.00 | 65 | 1011.9 |
| 20260507161037 | 65 | 135 | 1.0 | 2.0 | 0.00 | 0.00 | 0.00 | 63 | 1011.8 |
| 20260507160016 | 65 | 113 | 1.0 | 2.0 | 0.00 | 0.00 | 0.00 | 64 | 1011.9 |
| 20260507155018 | 65 | 0.0 | 2.0 | 0.00 | 0.00 | 0.00 | 63 | 1011.9 | |
| 20260507154037 | 66 | 135 | 1.0 | 3.0 | 0.00 | 0.00 | 0.00 | 62 | 1011.7 |
| 20260507153018 | 66 | 158 | 1.0 | 3.0 | 0.00 | 0.00 | 0.00 | 61 | 1011.5 |
| 20260507152016 | 66 | 113 | 1.0 | 3.0 | 0.00 | 0.00 | 0.00 | 61 | 1011.6 |
| 20260507151016 | 66 | 135 | 1.0 | 4.0 | 0.00 | 0.00 | 0.00 | 61 | 1011.5 |
| 20260507150016 | 66 | 113 | 1.0 | 3.0 | 0.00 | 0.00 | 0.00 | 64 | 1011.6 |
| 20260507145016 | 65 | 113 | 1.0 | 3.0 | 0.00 | 0.00 | 0.00 | 64 | 1011.7 |
| 20260507144016 | 65 | 135 | 1.0 | 3.0 | 0.00 | 0.00 | 0.00 | 64 | 1011.8 |
| 20260507143017 | 66 | 135 | 1.0 | 3.0 | 0.00 | 0.00 | 0.00 | 63 | 1011.8 |
| 20260507142016 | 66 | 135 | 1.0 | 3.0 | 0.00 | 0.00 | 0.00 | 63 | 1011.9 |
| 20260507141016 | 66 | 113 | 1.0 | 5.0 | 0.00 | 0.00 | 0.00 | 62 | 1011.9 |
| 20260507140016 | 66 | 135 | 2.0 | 5.0 | 0.00 | 0.00 | 0.00 | 64 | 1011.9 |
| 20260507135016 | 66 | 135 | 1.0 | 4.0 | 0.00 | 0.00 | 0.00 | 62 | 1012.0 |
| 20260507134016 | 66 | 113 | 1.0 | 3.0 | 0.00 | 0.00 | 0.00 | 61 | 1012.0 |
| 20260507133016 | 67 | 135 | 1.0 | 3.0 | 0.00 | 0.00 | 0.00 | 59 | 1012.2 |
| 20260507132016 | 67 | 113 | 1.0 | 5.0 | 0.00 | 0.00 | 0.00 | 57 | 1012.3 |
| 20260507131016 | 67 | 113 | 2.0 | 4.0 | 0.00 | 0.00 | 0.00 | 55 | 1012.3 |
| 20260507130016 | 68 | 113 | 1.0 | 5.0 | 0.00 | 0.00 | 0.00 | 55 | 1012.3 |
| 20260507125016 | 68 | 113 | 3.0 | 7.0 | 0.00 | 0.00 | 0.00 | 53 | 1012.3 |
| 20260507124016 | 69 | 135 | 1.0 | 3.0 | 0.00 | 0.00 | 0.00 | 56 | 1012.2 |
| 20260507123016 | 68 | 113 | 2.0 | 8.0 | 0.00 | 0.00 | 0.00 | 55 | 1012.2 |
| 20260507122016 | 67 | 203 | 1.0 | 3.0 | 0.00 | 0.00 | 0.00 | 57 | 1012.2 |
| 20260507121016 | 68 | 113 | 2.0 | 7.0 | 0.00 | 0.00 | 0.00 | 58 | 1012.1 |
| 20260507120016 | 67 | 113 | 2.0 | 5.0 | 0.00 | 0.00 | 0.00 | 60 | 1012.0 |
| 20260507115016 | 67 | 90 | 2.0 | 4.0 | 0.00 | 0.00 | 0.00 | 59 | 1011.9 |
| 20260507114015 | 67 | 113 | 2.0 | 4.0 | 0.00 | 0.00 | 0.00 | 60 | 1011.8 |
| 20260507113056 | 67 | 113 | 2.0 | 7.0 | 0.00 | 0.00 | 0.00 | 60 | 1011.9 |
| 20260507112016 | 66 | 113 | 2.0 | 7.0 | 0.00 | 0.00 | 0.00 | 63 | 1012.0 |
| 20260507111015 | 67 | 113 | 1.0 | 7.0 | 0.00 | 0.00 | 0.00 | 61 | 1012.1 |
| 20260507110036 | 68 | 113 | 1.0 | 6.0 | 0.00 | 0.00 | 0.00 | 60 | 1012.0 |
| 20260507105015 | 69 | 113 | 2.0 | 7.0 | 0.00 | 0.00 | 0.00 | 59 | 1012.2 |
| 20260507104035 | 69 | 113 | 2.0 | 7.0 | 0.00 | 0.00 | 0.00 | 59 | 1012.3 |
| 20260507103016 | 69 | 225 | 3.0 | 7.0 | 0.00 | 0.00 | 0.00 | 58 | 1012.4 |
| 20260507102015 | 68 | 113 | 2.0 | 7.0 | 0.00 | 0.00 | 0.00 | 59 | 1012.4 |
| 20260507101035 | 68 | 225 | 3.0 | 6.0 | 0.00 | 0.00 | 0.00 | 61 | 1012.4 |
| 20260507100016 | 68 | 113 | 2.0 | 6.0 | 0.00 | 0.00 | 0.00 | 62 | 1012.4 |
| 20260507095016 | 67 | 113 | 2.0 | 4.0 | 0.00 | 0.00 | 0.00 | 63 | 1012.5 |
| 20260507094017 | 67 | 90 | 1.0 | 5.0 | 0.00 | 0.00 | 0.00 | 61 | 1012.5 |
| 20260507093016 | 68 | 90 | 2.0 | 5.0 | 0.00 | 0.00 | 0.00 | 60 | 1012.5 |
| 20260507092017 | 68 | 113 | 2.0 | 4.0 | 0.00 | 0.00 | 0.00 | 56 | 1012.3 |
| 20260507091019 | 68 | 113 | 2.0 | 8.0 | 0.00 | 0.00 | 0.00 | 54 | 1012.3 |
| 20260507090037 | 68 | 113 | 2.0 | 7.0 | 0.00 | 0.00 | 0.00 | 52 | 1012.3 |
| 20260507085059 | 67 | 113 | 2.0 | 7.0 | 0.00 | 0.00 | 0.00 | 51 | 1012.3 |
| 20260507084058 | 67 | 135 | 1.0 | 5.0 | 0.00 | 0.00 | 0.00 | 52 | 1012.3 |
| 20260507083017 | 67 | 203 | 1.0 | 5.0 | 0.00 | 0.00 | 0.00 | 52 | 1012.2 |
| 20260507082017 | 66 | 113 | 1.0 | 5.0 | 0.00 | 0.00 | 0.00 | 54 | 1012.2 |
| 20260507081017 | 66 | 113 | 2.0 | 7.0 | 0.00 | 0.00 | 0.00 | 54 | 1012.2 |
| 20260507080015 | 65 | 113 | 1.0 | 4.0 | 0.00 | 0.00 | 0.00 | 53 | 1012.3 |
| 20260507075058 | 65 | 135 | 2.0 | 5.0 | 0.00 | 0.00 | 0.00 | 54 | 1012.3 |
| 20260507074017 | 64 | 113 | 1.0 | 3.0 | 0.00 | 0.00 | 0.00 | 54 | 1012.4 |
| 20260507073017 | 64 | 225 | 1.0 | 4.0 | 0.00 | 0.00 | 0.00 | 52 | 1012.4 |
| 20260507072017 | 63 | 203 | 1.0 | 4.0 | 0.00 | 0.00 | 0.00 | 55 | 1012.2 |
| 20260507071018 | 61 | 0.0 | 1.0 | 0.00 | 0.00 | 0.00 | 63 | 1012.0 | |
| 20260507070017 | 60 | 135 | 1.0 | 2.0 | 0.00 | 0.00 | 0.00 | 66 | 1011.8 |
| 20260507065017 | 57 | 0.0 | 1.0 | 0.00 | 0.00 | 0.00 | 70 | 1011.7 | |
| 20260507064017 | 56 | 0.0 | 0.0 | 0.00 | 0.00 | 0.00 | 72 | 1011.6 | |
| 20260507063017 | 55 | 0.0 | 0.0 | 0.00 | 0.01 | 0.00 | 73 | 1011.5 | |
| 20260507062017 | 55 | 113 | 1.0 | 3.0 | 0.00 | 0.02 | 0.00 | 76 | 1011.3 |
| 20260507061017 | 54 | 0.0 | 0.0 | 0.00 | 0.03 | 0.00 | 75 | 1011.1 | |
| 20260507060017 | 53 | 0.0 | 1.0 | 0.00 | 0.05 | 0.00 | 75 | 1011.2 | |
| 20260507055017 | 52 | 0.0 | 2.0 | 0.00 | 0.05 | 0.00 | 77 | 1011.2 | |
| 20260507054038 | 51 | 0.0 | 0.0 | 0.00 | 0.05 | 0.00 | 77 | 1010.9 | |
| 20260507053037 | 50 | 0.0 | 0.0 | 0.00 | 0.05 | 0.00 | 78 | 1010.9 | |
| 20260507052037 | 50 | 0.0 | 0.0 | 0.00 | 0.05 | 0.00 | 79 | 1010.8 | |
| 20260507051018 | 50 | 0.0 | 0.0 | 0.00 | 0.05 | 0.00 | 79 | 1010.6 | |
| 20260507050017 | 50 | 0.0 | 0.0 | 0.00 | 0.05 | 0.00 | 78 | 1010.7 | |
| 20260507045017 | 50 | 0.0 | 0.0 | 0.00 | 0.05 | 0.00 | 77 | 1010.6 | |
| 20260507044018 | 50 | 0.0 | 0.0 | 0.00 | 0.05 | 0.00 | 77 | 1010.6 | |
| 20260507043017 | 50 | 0.0 | 0.0 | 0.00 | 0.05 | 0.00 | 77 | 1010.5 | |
| 20260507042016 | 50 | 0.0 | 0.0 | 0.00 | 0.05 | 0.00 | 77 | 1010.3 | |
| 20260507041017 | 50 | 0.0 | 0.0 | 0.00 | 0.05 | 0.00 | 76 | 1010.3 | |
| 20260507040017 | 50 | 0.0 | 0.0 | 0.00 | 0.05 | 0.00 | 75 | 1010.2 | |
| 20260507035018 | 51 | 0.0 | 1.0 | 0.00 | 0.05 | 0.00 | 76 | 1010.2 | |
| 20260507034036 | 51 | 0.0 | 0.0 | 0.00 | 0.05 | 0.00 | 76 | 1010.2 | |
| 20260507033017 | 51 | 0.0 | 0.0 | 0.00 | 0.05 | 0.00 | 76 | 1010.2 | |
| 20260507032037 | 51 | 0.0 | 0.0 | 0.00 | 0.05 | 0.00 | 76 | 1010.1 | |
| 20260507031017 | 51 | 0.0 | 0.0 | 0.00 | 0.05 | 0.00 | 76 | 1010.2 | |
| 20260507030016 | 51 | 0.0 | 0.0 | 0.00 | 0.06 | 0.00 | 77 | 1010.2 | |
| 20260507025016 | 51 | 0.0 | 0.0 | 0.00 | 0.07 | 0.00 | 78 | 1010.3 | |
| 20260507024016 | 51 | 0.0 | 0.0 | 0.00 | 0.09 | 0.00 | 78 | 1010.3 | |
| 20260507023016 | 51 | 0.0 | 0.0 | 0.00 | 0.10 | 0.00 | 79 | 1010.2 | |
| 20260507022017 | 51 | 0.0 | 0.0 | 0.00 | 0.11 | 0.00 | 79 | 1010.2 | |
| 20260507021016 | 51 | 0.0 | 0.0 | 0.00 | 0.14 | 0.00 | 80 | 1010.1 | |
| 20260507020016 | 51 | 0.0 | 1.0 | 0.00 | 0.20 | 0.00 | 80 | 1010.0 | |
| 20260507015016 | 51 | 0.0 | 0.0 | 0.00 | 0.24 | 0.00 | 80 | 1009.9 | |
| 20260507014036 | 51 | 0.0 | 0.0 | 0.00 | 0.25 | 0.00 | 79 | 1009.9 | |
| 20260507013016 | 51 | 0.0 | 0.0 | 0.00 | 0.25 | 0.00 | 79 | 1009.9 | |
| 20260507012018 | 52 | 0.0 | 2.0 | 0.00 | 0.25 | 0.00 | 79 | 1009.9 | |
| 20260507011016 | 52 | 0.0 | 0.0 | 0.00 | 0.26 | 0.00 | 78 | 1010.0 | |
| 20260507010016 | 52 | 0.0 | 0.0 | 0.00 | 0.26 | 0.00 | 78 | 1009.8 | |
| 20260507005016 | 52 | 0.0 | 0.0 | 0.00 | 0.28 | 0.00 | 77 | 1009.9 | |
| 20260507004016 | 53 | 0.0 | 0.0 | 0.00 | 0.28 | 0.00 | 77 | 1010.0 | |
| 20260507003017 | 53 | 0.0 | 0.0 | 0.00 | 0.28 | 0.00 | 77 | 1009.9 | |
| 20260507002016 | 53 | 0.0 | 2.0 | 0.00 | 0.28 | 0.00 | 77 | 1009.9 | |
| 20260507001016 | 53 | 0.0 | 0.0 | 0.00 | 0.28 | 0.00 | 77 | 1009.8 | |
| 20260507000016 | 53 | 0.0 | 1.0 | 0.00 | 0.28 | 0.00 | 78 | 1009.8 | |
| 20260506235016 | 53 | 0.0 | 0.0 | 0.00 | 0.28 | 0.00 | 78 | 1009.7 | |
| 20260506234016 | 53 | 0.0 | 1.0 | 0.00 | 0.28 | 0.00 | 78 | 1009.9 | |
| 20260506233038 | 53 | 0.0 | 0.0 | 0.00 | 0.28 | 0.00 | 77 | 1009.9 | |
| 20260506232016 | 53 | 0.0 | 0.0 | 0.00 | 0.28 | 0.00 | 77 | 1009.9 | |
| 20260506231016 | 53 | 0.0 | 0.0 | 0.00 | 0.28 | 0.00 | 77 | 1009.9 | |
| 20260506230016 | 53 | 0.0 | 0.0 | 0.00 | 0.31 | 0.00 | 77 | 1009.9 | |
| 20260506225016 | 53 | 0.0 | 0.0 | 0.00 | 0.37 | 0.00 | 76 | 1009.8 | |
| 20260506224016 | 54 | 0.0 | 0.0 | 0.00 | 0.44 | 0.00 | 76 | 1009.8 | |
| 20260506223036 | 54 | 0.0 | 1.0 | 0.00 | 0.50 | 0.00 | 76 | 1009.7 |